Tracking 18844 objects as of 21-Nov-2017
HD Live streaming from Space Station
objects crossing your sky now

COSMOS 1412

Track COSMOS 1412 now!
10-day predictions
COSMOS 1412 is classified as:


NORAD ID: 13600
Int'l Code: 1982-099A
Perigee: 894.7 km
Apogee: 1,003.6 km
Inclination: 64.8 °
Period: 103.9 minutes
Semi major axis: 7320 km
RCS: 3.2535 m2 (large)
Launch date: October 2, 1982
Source: Commonwealth of Independent States (former USSR) (CIS)
Launch site: TYURATAM MISSILE AND SPACE COMPLEX (TTMTR)
aabbcc
Your satellite tracking list
Your tracking list is empty




NASA's NSSDC Master Catalog

Two Line Element Set (TLE):
1 13600U 82099A   17325.45602789 -.00000081  00000-0  78406-5 0  9997
2 13600  64.8139 273.2562 0074381 243.0177 258.3506 13.86203326766087
Source of the keplerian elements: AFSPC